BEESAT-3 (39135 NORAD) Tracking and Keplerian Element Data

This shows tracking and keplerian element data for the satellite.

Feedback or suggestion? Click here.




ElementValue
Catalog39135
NameBEESAT-3
Epoch Orbit52989
Epoch Day324.35849996
Epoch Year2022
RAAN308.7356
Inclination64.8639
Eccentricity0.0036361
Argument of Perigee260.955
Mean Anonmoly98.7465
Mean Motion15.27853129
Decay Rate0.00013902
L11 39135U 13015F 22324.35849996 .00013902 00000+0 50588-3 0 9990
L22 39135 64.8639 308.7356 0036361 260.9550 98.7465 15.27853129529892



Live tracking and technical data element details for BEESAT-3 (NORAD 39135). BEESAT-3 can be tracked NOW for your location showing map with azimuth and elevation plus other details from your city location.







IsCatalogInMostPopularTable: catalog: 39135, numindb: 625
Update: records affected: 1



GetName: 39135 BEESAT-3

Hit Count: updated at: Mon, 28 Nov 2022 05:42:51 GMT